Regional Weather Roundup
Issued by NWS

Home | Current Version | Previous Version | Text Only | Print | Product List | Glossary Off
Versions: 1 2 3 4 5 6 7 8 9 10 11 12 13 14 15 16 17 18 19 20 21 22 23 24 25 26 27 28 29 30 31 32 33 34 35 36 37 38 39 40 41 42 43 44 45 46 47 48 49 50

000
ASUS43 KDMX 060008
RWRIA

WEATHER ROUNDUP FOR IOWA
NATIONAL WEATHER SERVICE DES MOINES IA
600 PM CST FRI FEB 05 2016

NOTE: "FAIR" INDICATES FEW OR NO CLOUDS BELOW 12,000 FEET WITH NO
SIGNIFICANT WEATHER AND/OR OBSTRUCTIONS TO VISIBILITY.

* - THESE STATIONS ARE NOT NWS STATIONS...THUS NOT UNDER NWS
QUALITY CONTROL.  THEY ALSO DO NOT REPORT WEATHER SUCH
AS PRECIPITATION OR FOG.

IAZ001>003-012>014-020>022-031>034-043>046-060100-
   NORTHWEST IOWA

CITY           SKY/WX    TMP DP  RH WIND       PRES   REMARKS
CARROLL *      CLOUDY    27  27 100 S9        30.24R WCI  17
CHEROKEE *     LGT SNOW  28  27  96 S6        30.21F WCI  21
DENISON *      CLOUDY    28  27  93 S10       30.21S WCI  19
LE MARS *      MOCLDY    28  28 100 S7        30.21S WCI  21
ORANGE CITY *  LGT SNOW  27  27 100 S6        30.18F WCI  20
SHELDON *      CLOUDY    27  27 100 S10       30.17S FOG     WCI  17
SIOUX CITY     CLOUDY    30  25  81 SE5       30.21F WCI  25
6HR MIN TEMP:  29; 6HR MAX TEMP:  31; 6HR PCP: TRACE;

SPENCER        CLOUDY    27  22  81 S10       30.20S WCI  17
6HR MIN TEMP:  23; 6HR MAX TEMP:  27; 6HR PCP: TRACE;

STORM LAKE *   MIX PCPN  27  27 100 SW13      30.21R WCI  16
$$

IAZ055>058-069>071-079>083-090>094-060100-
   SOUTHWEST IOWA

CITY           SKY/WX    TMP DP  RH WIND       PRES   REMARKS
ATLANTIC *     CLOUDY    30  27  86 S10       30.26R WCI  21
AUDUBON *      CLEAR     28  25  86 S12       30.25S WCI  18
CLARINDA *     CLOUDY    30  30 100 S7        30.29S FOG     WCI  23
COUNCIL BLFS * CLOUDY    30  30 100 S8        30.24S WCI  23
CRESTON *      MIX PCPN  28  27  93 S12       30.27S WCI  18
HARLAN  *      CLOUDY    28  28 100 S12       30.28R WCI  18
LAMONI         CLOUDY    31  23  72 S10       30.28F WCI  22
6HR MIN TEMP:  29; 6HR MAX TEMP:  32;

RED OAK *      CLOUDY    30  30 100 S8G14     30.27S FOG     WCI  23
SHENANDOAH *   CLOUDY    32  32 100 S3        30.28S
$$

IAZ047>049-059>061-072>074-084-060100-
   CENTRAL IOWA

CITY           SKY/WX    TMP DP  RH WIND       PRES   REMARKS
AMES           LGT SNOW  26  24  92 S7        30.28S FOG     WCI  18
6HR MIN TEMP:  22; 6HR MAX TEMP:  28; 6HR PCP: TRACE;

ANKENY *       MIX PCPN  28  27  93 S9        30.29S WCI  20
BOONE *        MIX PCPN  27  25  93 S8        30.25S WCI  18
CHARITON *     CLOUDY    32  19  59 S9        30.29S WCI  24
DES MOINES     LGT SNOW  29  23  78 S7        30.29S WCI  22
6HR MIN TEMP:  26; 6HR MAX TEMP:  32; 6HR PCP: TRACE;

GRINNELL*      CLOUDY    28  22  79 S8        30.30F WCI  19
KNOXVILLE *    CLOUDY    30  19  64 SE6       30.29S WCI  24
MARSHALLTOWN   LGT SNOW  26  20  77 SE9       30.28F WCI  17
6HR MIN TEMP:  22; 6HR MAX TEMP:  26; 6HR PCP: TRACE;

NEWTON *       CLOUDY    28  25  86 SE10      30.29S WCI  19
PELLA *        CLOUDY    30  21  69 SE5       30.32R WCI  25
$$

IAZ004>006-015-016-023>025-035-036-060100-
   NORTH CENTRAL IOWA

CITY           SKY/WX    TMP DP  RH WIND       PRES   REMARKS
ALGONA *       CLOUDY    25  23  93 S17       30.22S WCI  11
CLARION *      CLOUDY    23  21  93 S14       30.24F FOG     WCI  11
ESTHERVILLE    CLOUDY    23  21  92 S14       30.19F WCI  11
6HR MIN TEMP:  18; 6HR MAX TEMP:  25; 6HR PCP: TRACE;

FORT DODGE *   PTCLDY    25  19  80 S9        30.24F WCI  15
MASON CITY     CLOUDY    22  18  85 S15       30.25S FOG     WCI   9
6HR MIN TEMP:  17; 6HR MAX TEMP:  22;

FOREST CITY *  LGT SNOW  23  19  86 S10       30.24S WCI  12
WEBSTER CITY * CLOUDY    25  23  93 S13       30.23F WCI  13
IOWA FALLS *   LGT SNOW  25  22  90 SE8       30.27F WCI  16
$$

IAZ007>011-017>019-026>030-037>042-050>054-066-060100-
   NORTHEAST IOWA

CITY           SKY/WX    TMP DP  RH WIND       PRES   REMARKS
CEDAR RAPIDS   CLOUDY    28  21  75 SE8       30.32S WCI  20
6HR MIN TEMP:  24; 6HR MAX TEMP:  29;

CHARLES CITY * CLOUDY    23  19  86 S9        30.27R WCI  13
CLINTON *      CLOUDY    29  23  78 SW6       30.36R WCI  23
DECORAH *      CLOUDY    21  14  73 S3        30.27S
DUBUQUE        CLOUDY    26  19  74 S5        30.31S WCI  20
6HR MIN TEMP:  24; 6HR MAX TEMP:  27;

MONTICELLO *   CLOUDY    28  23  80 S6        30.32S WCI  22
OELWEIN *      CLOUDY    23  18  80 S8        30.30S WCI  14
WATERLOO       CLOUDY    24  17  74 S8        30.29  WCI  15
6HR MIN TEMP:  16; 6HR MAX TEMP:  24;

$$

IAZ064-065-067-068-078-060100-
   EAST CENTRAL IOWA

CITY           SKY/WX    TMP DP  RH WIND       PRES   REMARKS
DAVENPORT      CLOUDY    29  20  69 SW6       30.36R WCI  23
6HR MIN TEMP:  28; 6HR MAX TEMP:  30;

IOWA CITY      CLOUDY    29  21  72 SE5       30.36S WCI  24
6HR MIN TEMP:  27; 6HR MAX TEMP:  29;

MT. PLEASANT * CLOUDY    32  25  76 CALM      30.35R
MUSCATINE *    CLOUDY    30  21  69 S6        30.36F WCI  24
QUAD CITIES    CLOUDY    30  20  66 S6        30.37R WCI  24
6HR MIN TEMP:  30; 6HR MAX TEMP:  32;

$$

IAZ062-063-075>077-085>089-095>099-060100-
   SOUTHEAST IOWA

CITY           SKY/WX    TMP DP  RH WIND       PRES   REMARKS
BURLINGTON     CLEAR     30  22  72 E8        30.32F WCI  22
6HR MIN TEMP:  28; 6HR MAX TEMP:  31;

FAIRFIELD *    CLOUDY    28  19  69 SE7       30.33F WCI  21
FORT MADISON * MOCLDY    28  21  74 CALM      30.36S
KEOKUK *       CLOUDY    32  19  59 S3        30.35R
OSKALOOSA *    CLOUDY    30  23  76 SE6       30.32S WCI  24
CENTERVILLE *    N/A    N/A N/A N/A MISG        N/A
OTTUMWA        CLOUDY    30  21  69 S7        30.32F WCI  23
6HR MIN TEMP:  25; 6HR MAX TEMP:  31;

WASHINGTON *   MOCLDY    28  23  80 S5        30.35F WCI  23
$$

ABBREVIATIONS USED IN REMARKS
   TC - TEMPERATURES IN CELSIUS
  WCI - WIND CHILL INDEX
   HX - HEAT INDEX
  VSB - VISIBILITY
$$




USA.gov is the U.S. government's official web portal to all federal, state and local government web resources and services.